Tracking 30995 objects as of 5-Jul-2025
HD Live streaming from Space Station
objects crossing your sky now

JILIN-01 KUANFU 02B 5

Track JILIN-01 KUANFU 02B 5 now!
10-day predictions


NORAD ID: 61193
Int'l Code: 2024-169E
Perigee: 537.8 km
Apogee: 548.5 km
Inclination: 97.6 °
Period: 95.4 minutes
Semi major axis: 6914 km
RCS: Unknown
Launch date: September 20, 2024
Source: People's Republic of China (PRC)
Launch site: Taiyaun Space Center, China (TSC)
Your satellite tracking list
Your tracking list is empty




NASA's NSSDC Master Catalog

Two Line Element Set (TLE):
1 61193U 24169E   25186.54211696  .00003981  00000-0  24841-3 0  9991
2 61193  97.5833 275.5096 0007683  38.4041 321.7733 15.10064533 43534
Source of the keplerian elements: AFSPC